Weather History for South Pass, WY

Change the Weather History Date:

Thursday, September 13, 2012

  Actual Average (KLND) Record (KLND)
Temperature  
Mean Temperature 54 °F 60 °F  
Max Temperature 66 °F 74 °F 88 °F (1943)
Min Temperature 41 °F 46 °F 25 °F (1914)
Degree Days  
Heating Degree Days 12 6  
Month to date heating degree days 53  
Since 1 July heating degree days 93  
Cooling Degree Days 0 1  
Month to date cooling degree days 22  
Year to date cooling degree days 467  
Growing Degree Days 4 (Base 50)    
Moisture  
Dew Point 12 °F    
Average Humidity 17    
Maximum Humidity 36    
Minimum Humidity 11    
Precipitation  
Precipitation 0.00 in 0.04 in 1.72 in (1982)
Month to date precipitation 0.35  
Year to date precipitation 9.23  
Snow  
Snow - 0.10 in - ()
Month to date snowfall 0.5  
Since 1 July snowfall 0.5  
Since 1 September snowfall 0.5  
Snow Depth -    
Sea Level Pressure  
Sea Level Pressure 30.54 in    
Wind  
Wind Speed 6 mph ()    
Max Wind Speed 14 mph    
Max Gust Speed 21 mph    
Visibility 10.0 miles    
Events      
T = Trace of Precipitation, MM = Missing Value Source: Averaged Metar Reports

Daily Weather History Graph

Daily Weather History Graph

Search for Another Location

Airport:

Trip Planner

Search our weather history database for the weather conditions in past years. The results will help you decide how hot, cold, wet, or windy it might be!

Date:

Astronomy

Sep. 13, 2012 Rise Set
Actual Time 6:53 AM MDT 7:27 PM MDT
Civil Twilight 6:25 AM MDT 7:55 PM MDT
Nautical Twilight 5:51 AM MDT 8:29 PM MDT
Astronomical Twilight 5:17 AM MDT 9:03 PM MDT
Moon 4:13 AM MDT (9/13) 5:53 PM MDT (9/13)
Length of Visible Light 13h 30m
Length of Day
12h 33m
Waning Crescent, 7% of the Moon is Illuminated
Sep 13
Waning Crescent
Sep 15
New
Sep 22
First Quarter
Sep 29
Full
Oct 8
Last Quarter

Hourly Weather History & Observations

Time (MDT) Temp. Windchill Dew Point Humidity Pressure Visibility Wind Dir Wind Speed Gust Speed Precip Events Conditions
12:15 AM 41.0 °F 33.5 °F 15.8 °F 36% 30.45 in 10.0 mi NNW 13.8 mph - N/A   Clear
8:15 AM 46.4 °F - 12.2 °F 25% 30.52 in 10.0 mi Calm Calm - N/A   Clear
8:35 AM 50.0 °F - 12.2 °F 22% 30.53 in 10.0 mi Calm Calm - N/A   Clear
8:55 AM 51.8 °F - 10.4 °F 19% 30.54 in 10.0 mi Calm Calm - N/A   Clear
9:15 AM 51.8 °F - 8.6 °F 18% 30.54 in 10.0 mi SSE 3.5 mph - N/A   Clear
9:35 AM 53.6 °F - 15.8 °F 22% 30.54 in 10.0 mi South 4.6 mph - N/A   Clear
9:55 AM 53.6 °F - 15.8 °F 22% 30.55 in 10.0 mi SW 3.5 mph - N/A   Clear
10:15 AM 53.6 °F - 14.0 °F 21% 30.54 in 10.0 mi SW 4.6 mph - N/A   Clear
10:35 AM 55.4 °F - 12.2 °F 18% 30.55 in 10.0 mi SSW 4.6 mph - N/A   Clear
10:55 AM 55.4 °F - 12.2 °F 18% 30.55 in 10.0 mi SSW 5.8 mph - N/A   Clear
11:15 AM 59.0 °F - 12.2 °F 16% 30.55 in 10.0 mi SSW 5.8 mph - N/A   Clear
11:35 AM 59.0 °F - 12.2 °F 16% 30.55 in 10.0 mi SW 4.6 mph - N/A   Clear
11:55 AM 59.0 °F - 12.2 °F 16% 30.54 in 10.0 mi SW 4.6 mph - N/A   Clear
12:15 PM 60.8 °F - 12.2 °F 15% 30.55 in 10.0 mi WSW 6.9 mph - N/A   Clear
12:35 PM 60.8 °F - 12.2 °F 15% 30.54 in 10.0 mi South 5.8 mph - N/A   Clear
12:55 PM 60.8 °F - 12.2 °F 15% 30.54 in 10.0 mi South 6.9 mph - N/A   Clear
1:15 PM 62.6 °F - 10.4 °F 13% 30.54 in 10.0 mi SW 5.8 mph - N/A   Clear
1:35 PM 62.6 °F - 12.2 °F 14% 30.54 in 10.0 mi SSW 6.9 mph 16.1 mph N/A   Clear
1:55 PM 62.6 °F - 12.2 °F 14% 30.53 in 10.0 mi South 13.8 mph 18.4 mph N/A   Clear
2:15 PM 64.4 °F - 12.2 °F 13% 30.53 in 10.0 mi South 11.5 mph 20.7 mph N/A   Clear
2:35 PM 64.4 °F - 10.4 °F 12% 30.53 in 10.0 mi WSW 5.8 mph - N/A   Clear
2:55 PM 64.4 °F - 10.4 °F 12% 30.53 in 10.0 mi WSW 3.5 mph - N/A   Clear
3:15 PM 64.4 °F - 10.4 °F 12% 30.52 in 10.0 mi SW 3.5 mph - N/A   Clear
3:55 PM 66.2 °F - 10.4 °F 11% 30.52 in 10.0 mi SSW 4.6 mph - N/A   Clear
4:15 PM 66.2 °F - 10.4 °F 11% 30.52 in 10.0 mi SSW 5.8 mph - N/A   Clear
4:35 PM 66.2 °F - 10.4 °F 11% 30.52 in 10.0 mi South 10.4 mph - N/A   Clear
4:55 PM 66.2 °F - 10.4 °F 11% 30.52 in 10.0 mi SSE 5.8 mph - N/A   Clear
5:15 PM 64.4 °F - 10.4 °F 12% 30.52 in 10.0 mi ENE 6.9 mph - N/A   Clear
5:35 PM 64.4 °F - 10.4 °F 12% 30.52 in 10.0 mi NNE 9.2 mph - N/A   Clear
5:55 PM 62.6 °F - 10.4 °F 13% 30.52 in 10.0 mi NNE 5.8 mph - N/A   Clear
6:15 PM 62.6 °F - 10.4 °F 13% 30.52 in 10.0 mi NE 5.8 mph - N/A   Clear
6:35 PM 60.8 °F - 10.4 °F 14% 30.52 in 10.0 mi NNE 6.9 mph - N/A   Clear
6:55 PM 60.8 °F - 10.4 °F 14% 30.53 in 10.0 mi NNE 5.8 mph - N/A   Clear
7:15 PM 59.0 °F - 10.4 °F 15% 30.53 in 10.0 mi North 4.6 mph - N/A   Clear
7:35 PM 57.2 °F - 10.4 °F 16% 30.53 in 10.0 mi North 5.8 mph - N/A   Clear
7:55 PM 55.4 °F - 10.4 °F 17% 30.54 in 10.0 mi North 5.8 mph - N/A   Clear
8:15 PM 53.6 °F - 10.4 °F 18% 30.54 in 10.0 mi North 6.9 mph - N/A   Clear
8:35 PM 53.6 °F - 10.4 °F 18% 30.55 in 10.0 mi NNW 6.9 mph - N/A   Clear
8:55 PM 51.8 °F - 12.2 °F 21% 30.55 in 10.0 mi NNW 9.2 mph - N/A   Clear
9:15 PM 51.8 °F - 12.2 °F 21% 30.56 in 10.0 mi North 9.2 mph - N/A   Clear
9:35 PM 51.8 °F - 12.2 °F 21% 30.56 in 10.0 mi North 9.2 mph - N/A   Clear
9:55 PM 51.8 °F - 12.2 °F 21% 30.56 in 10.0 mi NNW 11.5 mph - N/A   Clear
10:15 PM 51.8 °F - 12.2 °F 21% 30.56 in 10.0 mi NNW 9.2 mph - N/A   Clear
10:35 PM 51.8 °F - 12.2 °F 21% 30.57 in 10.0 mi North 6.9 mph - N/A   Clear
10:55 PM 50.0 °F - 12.2 °F 22% 30.57 in 10.0 mi NNW 8.1 mph - N/A   Clear
11:15 PM 50.0 °F - 14.0 °F 24% 30.57 in 10.0 mi NNW 6.9 mph - N/A   Clear
11:35 PM 51.8 °F - 14.0 °F 22% 30.57 in 10.0 mi NNW 6.9 mph - N/A   Clear
11:55 PM 53.6 °F - 12.2 °F 19% 30.57 in 10.0 mi NNW 3.5 mph - N/A   Clear